Weather History for Berlin Tegel, Germany

Change the Weather History Date:

Tuesday, October 8, 2013

  Actual Average Record
Temperature  
Mean Temperature 56 °F -  
Max Temperature 61 °F 52 °F 69 °F (2001)
Min Temperature 50 °F 40 °F 35 °F (2002)
Degree Days  
Heating Degree Days 10    
Growing Degree Days 6 (Base 50)    
Moisture  
Dew Point 49 °F    
Average Humidity 74    
Maximum Humidity 94    
Minimum Humidity 46    
Precipitation  
Precipitation 0.00 in - - ()
Sea Level Pressure  
Sea Level Pressure 30.28 in    
Wind  
Wind Speed 3 mph ()    
Max Wind Speed 8 mph    
Max Gust Speed -    
Visibility 9.5 miles    
Events Fog    
Averages and records for this station are not official NWS values.
T = Trace of Precipitation, MM = Missing Value Source: Averaged Metar Reports

Daily Weather History Graph

Daily Weather History Graph

Search for Another Location

Airport:

Trip Planner

Search our weather history database for the weather conditions in past years. The results will help you decide how hot, cold, wet, or windy it might be!

Date:

Astronomy

Oct. 08, 2013 Rise Set
Actual Time 7:20 AM CEST 6:27 PM CEST
Civil Twilight 6:45 AM CEST 7:01 PM CEST
Nautical Twilight 6:06 AM CEST 7:41 PM CEST
Astronomical Twilight 5:26 AM CEST 8:21 PM CEST
Moon 11:24 AM CEST (10/8) 8:18 PM CEST (10/8)
Length of Visible Light 12h 15m
Length of Day
11h 07m
Waxing Crescent, 14% of the Moon is Illuminated
Oct 8
Waxing Crescent
Oct 12
First Quarter
Oct 19
Full
Oct 27
Last Quarter
Nov 3
New

Hourly Weather History & Observations

Time (CEST) Temp. Dew Point Humidity Pressure Visibility Wind Dir Wind Speed Gust Speed Precip Events Conditions
12:00 AM 56 °F 50 °F 74% 30.34 in 19 mi ESE 2.2 mph - -   Mostly Cloudy
12:20 AM 55.4 °F 50.0 °F 82% 30.33 in 6.2 mi ESE 2.3 mph - N/A   Mostly Cloudy
12:50 AM 55.4 °F 50.0 °F 82% 30.33 in 6.2 mi ESE 2.3 mph - N/A   Mostly Cloudy
1:00 AM 56 °F 50 °F 75% 30.34 in 19 mi ESE 2.2 mph - -   Mostly Cloudy
1:20 AM 55.4 °F 50.0 °F 82% 30.33 in 6.2 mi Variable 1.2 mph - N/A   Mostly Cloudy
1:50 AM 55.4 °F 50.0 °F 82% 30.33 in 6.2 mi Variable 1.2 mph - N/A   Mostly Cloudy
2:00 AM 55 °F 51 °F 80% 30.34 in 19 mi NE 2.2 mph - -   Mostly Cloudy
2:20 AM 55.4 °F 50.0 °F 82% 30.33 in 6.2 mi ESE 3.5 mph - N/A   Mostly Cloudy
2:50 AM 55.4 °F 50.0 °F 82% 30.33 in 6.2 mi SE 3.5 mph - N/A   Mostly Cloudy
3:00 AM 56 °F 51 °F 76% 30.34 in 19 mi SE 2.2 mph - -   Mostly Cloudy
3:20 AM 55.4 °F 50.0 °F 82% 30.33 in 6.2 mi SE 3.5 mph - N/A   Mostly Cloudy
3:50 AM 55.4 °F 50.0 °F 82% 30.30 in 6.2 mi Variable 1.2 mph - N/A   Mostly Cloudy
4:00 AM 55 °F 50 °F 79% 30.33 in 19 mi Calm Calm - -   Mostly Cloudy
4:20 AM 55.4 °F 50.0 °F 82% 30.30 in 6.2 mi SE 1.2 mph - N/A   Mostly Cloudy
4:50 AM 55.4 °F 50.0 °F 82% 30.30 in 6.2 mi NE 1.2 mph - N/A   Mostly Cloudy
5:00 AM 55 °F 51 °F 81% 30.32 in 19 mi ESE 2.2 mph - -   Mostly Cloudy
5:20 AM 55.4 °F 51.8 °F 88% 30.30 in 6.2 mi ENE 2.3 mph - N/A   Mostly Cloudy
5:50 AM 55.4 °F 50.0 °F 82% 30.30 in 6.2 mi ESE 1.2 mph - N/A   Mostly Cloudy
6:00 AM 55 °F 50 °F 78% 30.32 in 19 mi SSE 4.5 mph - -   Mostly Cloudy
6:20 AM 55.4 °F 50.0 °F 82% 30.30 in 6.2 mi Variable 3.5 mph - N/A   Mostly Cloudy
6:50 AM 55.4 °F 50.0 °F 82% 30.30 in 6.2 mi SE 1.2 mph - N/A   Mostly Cloudy
7:00 AM 55 °F 50 °F 78% 30.31 in 19 mi SE 2.2 mph - -   Mostly Cloudy
7:20 AM 55.4 °F 50.0 °F 82% 30.30 in 6.2 mi North 1.2 mph - N/A   Mostly Cloudy
7:50 AM 55.4 °F 50.0 °F 82% 30.30 in 6.2 mi Calm Calm - N/A   Mostly Cloudy
8:00 AM 55 °F 50 °F 78% 30.32 in 19 mi SSE 2.2 mph - -   Mostly Cloudy
8:20 AM 55.4 °F 50.0 °F 82% 30.30 in 6.2 mi SSE 4.6 mph - N/A   Mostly Cloudy
8:50 AM 55.4 °F 50.0 °F 82% 30.30 in 6.2 mi SSE 4.6 mph - N/A   Mostly Cloudy
9:00 AM 56 °F 50 °F 73% 30.32 in 16 mi SSE 4.5 mph - -   Mostly Cloudy
9:20 AM 57.2 °F 50.0 °F 77% 30.30 in 6.2 mi SSE 4.6 mph - N/A   Mostly Cloudy
9:50 AM 57.2 °F 50.0 °F 77% 30.30 in 6.2 mi SSE 3.5 mph - N/A   Mostly Cloudy
10:00 AM 58 °F 49 °F 65% 30.32 in 7 mi SE 4.5 mph - -   Mostly Cloudy
10:20 AM 59.0 °F 46.4 °F 63% 30.30 in 6.2 mi SE 3.5 mph - N/A   Mostly Cloudy
10:50 AM 60.8 °F 44.6 °F 55% 30.30 in 6.2 mi SE 6.9 mph - N/A   Mostly Cloudy
11:00 AM 60 °F 46 °F 48% 30.31 in 12 mi SSE 6.7 mph - -   Mostly Cloudy
11:20 AM 60.8 °F 44.6 °F 55% 30.30 in 6.2 mi ESE 8.1 mph - N/A   Mostly Cloudy
11:50 AM 59.0 °F 44.6 °F 59% 30.30 in 6.2 mi SSE 6.9 mph - N/A   Mostly Cloudy
12:00 PM 60 °F 45 °F 47% 30.30 in 12 mi South 4.5 mph - -   Mostly Cloudy
12:20 PM 59.0 °F 44.6 °F 59% 30.27 in 6.2 mi South 4.6 mph - N/A   Mostly Cloudy
12:50 PM 59.0 °F 44.6 °F 59% 30.27 in 6.2 mi SSE 4.6 mph - N/A   Mostly Cloudy
1:00 PM 60 °F 45 °F 46% 30.29 in 16 mi SSW 4.5 mph - -   Mostly Cloudy
1:20 PM 60.8 °F 44.6 °F 55% 30.27 in 6.2 mi Variable 3.5 mph - N/A   Mostly Cloudy
1:50 PM 60.8 °F 44.6 °F 55% 30.27 in 6.2 mi SSE 2.3 mph - N/A   Mostly Cloudy
2:00 PM 60 °F 45 °F 48% 30.27 in 16 mi SSE 2.2 mph - -   Overcast
2:20 PM 60.8 °F 46.4 °F 59% 30.27 in 6.2 mi South 2.3 mph - N/A   Mostly Cloudy
2:50 PM 59.0 °F 46.4 °F 63% 30.24 in 6.2 mi West 3.5 mph - N/A   Mostly Cloudy
3:00 PM 60 °F 46 °F 50% 30.27 in 16 mi West 2.2 mph - -   Overcast
3:20 PM 59.0 °F 48.2 °F 67% 30.24 in 6.2 mi SW 2.3 mph - N/A   Mostly Cloudy
3:50 PM 59.0 °F 48.2 °F 67% 30.24 in 6.2 mi SW 4.6 mph - N/A   Mostly Cloudy
4:00 PM 59 °F 48 °F 58% 30.25 in 19 mi SW 4.5 mph - -   Overcast
4:20 PM 59.0 °F 48.2 °F 67% 30.24 in 6.2 mi SW 5.8 mph - N/A   Mostly Cloudy
4:50 PM 59.0 °F 48.2 °F 67% 30.24 in 6.2 mi SSW 5.8 mph - N/A   Mostly Cloudy
5:00 PM 59 °F 49 °F 60% 30.24 in 19 mi SSW 4.5 mph - -   Mostly Cloudy
5:20 PM 59.0 °F 50.0 °F 72% 30.21 in 6.2 mi WSW 4.6 mph - N/A   Mostly Cloudy
5:50 PM 57.2 °F 48.2 °F 72% 30.21 in 6.2 mi West 3.5 mph - N/A   Mostly Cloudy
6:00 PM 58 °F 49 °F 65% 30.24 in 22 mi West 2.2 mph - -   Mostly Cloudy
6:20 PM 57.2 °F 50.0 °F 77% 30.21 in 6.2 mi NW 2.3 mph - N/A   Mostly Cloudy
6:50 PM 57.2 °F 50.0 °F 77% 30.21 in 6.2 mi NW 2.3 mph - N/A   Mostly Cloudy
7:00 PM 57 °F 49 °F 68% 30.23 in 22 mi NW 2.2 mph - -   Mostly Cloudy
7:20 PM 55.4 °F 50.0 °F 82% 30.21 in 6.2 mi WNW 2.3 mph - N/A   Mostly Cloudy
7:50 PM 53.6 °F 48.2 °F 82% 30.24 in 6.2 mi West 2.3 mph - N/A   Scattered Clouds
8:00 PM 53 °F 49 °F 80% 30.25 in 22 mi West 2.2 mph - -   Partly Cloudy
8:20 PM 53.6 °F 50.0 °F 88% 30.24 in 6.2 mi Variable 1.2 mph - N/A   Scattered Clouds
8:50 PM 51.8 °F 48.2 °F 88% 30.24 in 6.2 mi WSW 1.2 mph - N/A   Scattered Clouds
9:00 PM 52 °F 49 °F 84% 30.25 in 19 mi WSW 2.2 mph - -   Partly Cloudy
9:20 PM 51.8 °F 48.2 °F 88% 30.21 in 6.2 mi Calm Calm - N/A Fog Patches of Fog
9:50 PM 50.0 °F 48.2 °F 94% 30.21 in 6.2 mi Calm Calm - N/A Fog Patches of Fog
10:00 PM 51 °F 48 °F 87% 30.24 in 16 mi Calm Calm - - Fog Light Fog
10:20 PM 51.8 °F 48.2 °F 88% 30.21 in 6.2 mi West 3.5 mph - N/A   Mostly Cloudy
10:50 PM 51.8 °F 50.0 °F 94% 30.21 in 6.2 mi WSW 2.3 mph - N/A   Mostly Cloudy
11:00 PM 52 °F 49 °F 88% 30.22 in 16 mi WSW 2.2 mph - -   Mostly Cloudy
11:20 PM 51.8 °F 48.2 °F 88% 30.21 in 6.2 mi South 2.3 mph - N/A   Scattered Clouds
11:50 PM 50.0 °F 48.2 °F 94% 30.18 in 6.2 mi South 3.5 mph - N/A Fog Patches of Fog